SCP
0 0 0 0 0 0 0 0 0 0 0 0 0 0 0 0 0 0 0 0 -0 -0 0 0 0 0 0 0 0 0 0 0 0 0 0 0 0 0 0 0 0 0 0 0
0 0 0 0 0 0 0 0 0 0 0 0 0 0 0 0 0 0 0 0 -0 -0 0 0 0 0 0 0 0 0 0 0 0 0 0 0 0 0 0 0 0 0 0 0
0 0 0 0 0 0 0 0 0 0 0 0 0 0 0 0 0 0 0 0 0 -0 0 0 0 0 0 0 0 0 0 0 0 0 0 0 0 0 0 0 0 0 0 0
0 0 0 0 0 0 0 0 0 0 0 0 0 0 0 0 0 0 0 0 0 -0 0 0 0 0 0 0 0 0 0 0 0 0 0 0 0 0 0 0 0 0 0 0
0 0 0 0 0 0 0 0 0 0 0 0 0 0 0 0 0 0 0 0 0 0 0 0 0 0 0 0 0 0 0 0 0 0 0 0 0 0 0 0 0 0 0 0
0 0 0 0 0 0 0 0 0 0 0 0 0 0 0 0 0 0 0 0 0 0 0 0 0 0 0 0 0 0 0 0 0 0 0 0 0 0 0 0 0 0 0 0
0 0 0 0 0 0 0 0 0 0 0 0 0 0 0 0 0 0 0 0 0 0 0 0 0 0 0 0 0 0 0 0 0 0 0 0 0 0 0 0 0 0 0 0
0 0 0 0 0 0 0 0 0 0 0 0 0 0 0 0 0 0 0 0 0 0 0 0 0 0 0 0 0 0 0 0 0 0 0 0 0 0 0 0 0 0 0 0
0 0 0 0 0 0 0 0 0 0 0 0 0 0 0 0 0 0 0 0 0 0 0 0 0 0 0 0 0 0 0 0 0 0 0 0 0 0 0 0 0 0 0 0
0 0 0 0 -0 -0 -0 0 0 0 0 0 0 0 0 0 0 0 0 0 0 0 0 0 0 0 0 0 0 0 0 0 0 0 0 0 0 0 0 0 0 0 0 0
0 0 0 0 0 0 0 0 0 0 0 0 0 0 0 0 0 0 0 0 0 0 0 0 0 0 0 0 0 0 0 0 0 0 0 0 0 0 0 0 0 0 0 0
0 0 0 0 0 0 0 0 0 0 0 0 0 0 0 0 0 0 0 0 0 0 0 0 0 -0 -0 -0 0 0 0 0 0 0 0 0 0 0 0 0 0 0 0 0
0 0 0 0 0 0 0 0 0 0 0 0 0 0 0 0 -0 0 0 0 0 0 0 0 -0 -0 -0 -0 -0 0 0 0 0 0 0 0 0 0 0 0 0 0 0 0
0 0 0 0 0 0 0 0 0 0 0 0 0 0 0 -0 -0 -0 0 0 0 0 0 0 -0 -0 -0 -0 0 0 0 0 0 0 0 0 0 0 0 0 0 0 0 0
0 0 0 0 -0 -0 0 0 0 0 0 0 0 0 0 0 -0 -0 0 0 0 0 0 0 -0 -0 -0 0 0 0 0 0 0 0 0 0 0 0 0 0 0 0 0 0
0 0 0 -0 -0 -0 -0 -0 0 0 0 0 0 0 0 0 0 0 -0 0 0 0 0 0 -0 -0 -0 0 0 0 0 0 0 0 0 0 0 0 0 0 0 0 0 0
0 0 0 0 0 0 0 0 0 0 0 0 0 0 0 0 0 0 0 0 0 0 0 0 -0 0 0 0 0 0 0 0 0 0 0 0 0 0 0 0 0 0 0 0
0 0 0 0 0 0 0 0 0 0 0 0 0 0 0 0 0 0 0 0 0 0 0 0 0 0 0 0 0 0 0 0 0 0 0 0 0 0 0 0 0 0 0 0
0 0 0 0 0 0 0 0 0 0 0 0 0 0 0 0 0 0 0 0 0 0 0 0 0 0 0 0 0 0 0 0 0 0 0 0 0 0 0 0 0 0 0 0
0 0 0 0 0 0 0 0 0 0 0 0 0 0 0 0 0 0 0 0 0 0 0 0 0 0 0 0 0 0 0 0 0 0 0 0 0 0 0 0 0 0 0 0
-0 -0 0 0 0 0 0 0 0 0 0 0 0 0 0 0 0 0 0 0 0 0 0 0 0 0 0 0 0 0 0 0 0 0 0 0 0 0 0 0 0 0 0 0
0 0 0 0 0 0 0 0 0 0 0 0 0 0 0 0 0 0 0 0 0 0 0 0 0 0 0 0 0 0 0 0 0 0 0 0 0 0 0 0 0 0 0 0
0 0 0 0 0 0 0 0 -0 -0 0 0 0 0 0 0 0 0 0 0 0 0 0 0 0 0 0 0 0 0 0 0 0 0 0 0 0 0 0 0 0 0 0 0
0 0 0 -0 -0 -0 -0 -0 -0 0 0 0 0 0 0 0 0 0 0 0 0 0 0 0 0 0 0 0 0 0 0 0 0 0 0 0 0 0 0 0 0 0 0 0
0 -0 -0 -0 -0 -0 -0 0 0 0 0 0 0 0 0 0 0 0 0 0 0 0 0 0 0 0 0 0 0 0 0 0 0 0 0 0 0 0 0 0 0 0 0 0
-0 -0 -0 -0 -0 0 0 0 0 0 0 0 0 0 0 0 0 0 0 0 0 0 0 0 0 0 0 0 0 0 0 0 0 0 0 0 0 0 0 0 0 0 0 0
-0 -0 0 0 0 0 0 0 0 0 0 0 0 0 0 0 0 0 0 0 0 0 0 0 0 0 0 0 0 0 0 0 0 0 0 0 0 0 0 0 0 0 0 0
Wind_Speed
11 9 8 10 12 12 14 14 13 13 14 14 10 8 7 6 5 5 4 4 4 4 4 4 4 4 4 4 4 4 4 5 5 5 4 5 5 5 5 6 6 6 6 6
9 8 10 14 16 17 18 18 20 20 20 13 8 7 7 7 6 5 5 5 5 5 5 5 5 4 4 4 4 4 5 5 5 5 5 5 5 5 5 6 6 6 6 6
8 5 8 14 14 16 14 14 14 17 13 6 5 6 6 6 6 6 6 5 5 5 5 5 5 5 5 5 4 5 6 5 5 5 5 5 5 6 6 6 6 6 7 7
6 5 13 6 1 6 11 12 13 11 8 6 7 6 6 6 6 6 6 6 5 5 5 5 5 5 5 4 5 5 6 6 5 5 6 6 6 6 7 6 6 6 7 7
5 9 13 9 4 5 8 9 8 11 11 8 5 5 6 6 6 6 6 6 6 5 5 5 5 5 4 5 5 6 6 6 6 6 6 6 6 7 6 6 6 7 7 7
7 8 10 4 1 2 4 7 3 5 7 5 2 5 4 2 4 6 6 5 5 5 5 5 5 4 5 6 6 7 6 6 6 6 6 7 7 7 6 6 7 6 7 7
12 11 11 4 3 4 6 3 1 3 5 5 6 6 5 5 5 6 6 6 5 5 5 5 4 4 6 6 7 6 5 6 6 6 7 7 6 6 6 6 6 6 6 6
9 11 11 4 6 6 4 3 4 5 5 6 7 7 7 7 6 6 6 6 5 5 5 5 5 5 6 7 6 5 5 6 7 7 6 5 6 6 6 6 6 6 6 6
9 8 3 4 6 5 5 6 6 7 7 7 7 8 8 7 7 7 7 6 5 6 6 5 5 6 7 7 5 5 6 7 7 6 6 6 6 6 5 5 5 5 5 5
9 11 10 8 9 9 8 9 9 9 8 8 8 9 8 8 7 7 7 6 6 6 6 6 5 6 7 6 5 6 7 7 6 6 6 6 5 5 5 5 5 5 5 5
12 12 11 10 9 10 10 10 10 9 8 9 9 9 9 8 8 7 7 6 6 6 7 7 6 6 6 6 6 7 7 7 6 6 6 6 6 6 7 7 6 6 6 5
11 9 9 11 9 9 9 9 9 9 9 8 9 10 10 8 7 7 7 6 6 7 7 8 7 7 6 6 6 6 6 6 5 5 5 5 5 5 7 8 9 10 10 9
12 10 11 12 10 8 8 9 8 8 9 9 9 9 9 8 7 7 7 7 8 8 8 8 8 8 7 6 6 7 7 7 5 5 5 5 5 5 5 5 8 9 10 10
11 9 10 9 8 7 7 8 7 7 8 8 8 7 7 7 7 8 8 8 8 8 8 8 8 8 7 6 6 7 7 7 6 6 5 5 5 5 5 5 5 4 6 8
8 8 8 7 7 6 5 5 6 6 7 7 6 6 7 7 8 8 8 7 7 8 8 8 8 9 7 6 6 7 7 6 5 5 5 5 5 5 5 6 5 5 4 5
6 6 6 6 6 6 5 6 7 8 7 7 7 7 7 8 8 8 8 7 8 9 9 8 9 9 7 6 7 6 6 7 7 5 5 5 5 5 5 5 5 5 5 4
5 5 5 5 6 7 7 7 8 8 8 8 8 8 8 8 8 8 8 8 8 9 9 9 9 8 7 7 7 6 5 6 7 6 5 5 5 5 5 5 5 5 5 5
6 6 6 6 7 8 8 8 7 8 8 8 8 8 8 8 9 9 9 8 8 9 9 9 8 7 7 7 6 5 5 5 5 5 5 5 5 5 5 5 5 5 4 4
5 6 7 7 7 7 7 7 8 8 8 7 8 8 9 9 9 9 8 8 8 9 9 7 7 7 7 7 6 5 5 6 5 5 5 6 6 5 5 5 5 5 4 4
5 5 6 7 7 7 7 8 8 8 8 7 8 8 9 9 8 8 8 8 8 7 7 7 7 7 7 6 6 5 5 6 6 5 5 5 5 5 4 4 5 4 4 4
6 7 7 7 7 7 8 8 8 8 8 8 8 9 9 9 8 7 7 8 8 6 7 8 6 6 5 5 6 5 5 5 5 5 5 5 5 5 5 5 5 4 4 4
7 7 8 7 7 8 7 7 7 8 9 8 8 8 8 9 8 7 8 7 7 8 6 5 5 6 6 6 5 5 5 5 5 5 5 5 5 5 5 5 5 4 4 4
7 7 8 8 8 8 8 8 7 7 8 8 8 8 8 8 6 6 7 6 5 8 7 6 7 8 9 6 5 5 5 5 5 5 5 5 5 5 5 5 5 4 4 4
7 8 8 8 7 8 9 9 7 7 8 8 8 8 8 7 6 6 6 8 9 10 7 7 9 10 9 5 5 5 5 5 5 5 5 5 5 5 5 5 4 4 4 5
7 7 7 7 7 7 8 8 7 7 7 6 7 7 6 5 6 6 6 7 9 9 7 7 9 9 6 4 5 5 5 5 5 4 5 5 5 5 4 4 4 4 4 4
8 7 7 7 7 6 6 6 6 6 6 6 6 5 5 5 6 6 5 6 8 8 7 5 5 6 4 4 5 5 4 4 5 5 5 4 5 5 4 4 5 4 4 4
7 7 6 6 6 5 5 6 6 6 6 6 7 6 6 5 5 5 6 5 5 5 5 5 4 4 4 4 4 4 4 4 4 4 4 4 4 4 4 5 4 4 3 4
Wind_Direction
265 273 263 255 246 227 226 234 245 257 261 268 272 270 268 264 266 271 270 266 264 262 258 248 245 244 241 239 232 227 234 240 245 251 254 255 254 252 251 248 247 247 246 246
266 258 259 263 254 242 241 244 249 261 268 272 279 273 263 253 251 259 267 270 270 264 260 253 252 254 249 245 239 234 239 246 251 253 254 254 254 253 252 251 249 246 243 244
265 272 278 259 246 231 229 230 235 246 255 267 265 259 257 249 243 252 264 269 269 265 261 259 257 256 253 251 245 240 244 249 250 252 255 256 256 254 251 252 250 248 248 246
269 261 247 260 153 226 231 241 231 242 256 265 271 279 267 249 250 261 266 268 271 273 271 269 263 257 256 251 243 244 247 249 250 251 254 258 256 255 255 253 248 248 248 248
238 254 268 269 226 206 225 252 232 239 257 269 290 278 254 236 249 263 271 274 277 278 275 270 262 257 252 247 243 244 248 250 250 250 255 257 255 257 258 255 253 251 251 249
232 248 256 271 154 186 218 253 233 241 260 267 239 258 265 267 267 272 277 278 281 282 274 267 264 252 245 245 245 246 251 253 254 251 251 255 258 259 258 255 254 256 254 252
233 247 263 277 142 164 227 285 33 265 268 247 241 266 301 293 282 278 281 285 286 279 271 268 264 246 245 248 250 255 257 256 254 252 252 256 259 257 256 255 255 253 255 253
219 234 250 156 156 212 271 327 289 284 277 258 261 278 282 281 278 276 280 284 283 277 273 269 255 246 251 256 263 264 260 258 257 256 256 252 253 255 253 250 251 249 252 256
217 238 287 195 223 257 277 275 280 281 281 267 268 273 275 277 277 277 277 280 280 275 273 268 255 247 255 265 269 263 261 260 261 260 257 250 248 250 250 246 247 246 246 252
254 260 264 261 262 264 263 270 276 274 273 264 265 269 270 270 272 273 272 273 273 270 269 271 265 258 261 268 264 258 260 263 262 260 260 255 249 244 242 242 245 245 245 249
258 271 281 268 261 267 271 271 271 269 266 263 265 267 267 269 269 269 269 268 266 262 266 272 274 267 265 263 256 257 261 263 262 259 258 257 253 249 246 246 244 245 248 247
258 269 271 282 289 284 276 271 269 269 267 261 258 263 266 266 265 265 267 268 265 264 267 273 275 273 269 261 254 255 259 259 259 258 257 256 258 262 250 249 254 252 255 255
268 282 277 282 286 282 274 275 275 269 266 268 266 261 261 264 264 263 264 264 264 266 269 273 275 275 272 262 252 251 255 258 259 257 255 254 253 256 266 260 248 249 251 250
266 273 272 271 275 280 278 279 280 277 274 271 270 266 262 263 263 260 260 262 267 269 268 268 270 272 271 263 253 252 255 254 253 254 253 251 250 250 252 257 262 260 250 250
259 252 260 276 281 282 281 278 276 275 278 276 271 265 262 263 265 266 267 265 264 265 265 264 266 270 270 260 254 254 255 253 251 251 250 249 248 248 247 247 252 259 263 256
270 261 257 265 273 280 280 275 273 276 279 278 275 272 270 270 271 271 269 263 260 262 264 264 265 270 269 260 256 255 253 251 250 252 250 249 246 244 243 243 247 251 252 253
258 268 268 271 277 282 280 277 275 278 280 278 278 281 280 277 275 272 270 265 262 263 265 264 267 270 263 254 252 252 252 250 245 249 248 246 244 242 241 241 245 249 250 246
246 260 267 271 276 281 284 284 282 281 281 282 285 281 276 271 270 273 275 277 274 271 267 265 266 266 259 251 248 248 247 247 245 248 248 245 244 242 242 242 243 247 252 248
262 267 274 276 277 276 279 283 286 286 284 282 279 276 274 273 272 274 275 273 269 271 272 268 261 257 258 251 244 246 244 245 246 246 245 245 246 242 240 241 242 244 246 246
272 277 280 283 284 279 279 282 284 284 282 280 278 278 277 277 277 276 273 268 264 268 276 275 269 263 258 252 242 243 243 244 245 244 242 241 241 241 240 240 241 241 241 241
277 281 282 284 287 285 281 281 281 281 284 282 277 277 280 282 280 276 273 275 277 277 274 268 264 261 256 250 239 243 243 244 243 242 241 241 241 240 239 238 238 238 239 240
281 283 285 286 285 286 286 283 279 279 282 281 279 278 279 280 280 276 266 268 279 283 281 272 265 261 259 257 248 243 243 243 243 242 239 239 238 239 239 238 238 237 238 239
279 281 283 284 284 287 290 286 280 277 277 277 277 276 274 274 275 275 280 280 281 281 280 271 270 269 267 260 251 245 245 244 243 242 240 237 236 238 239 240 240 239 239 237
279 280 281 285 286 284 285 287 286 281 278 278 274 271 270 274 274 265 269 280 284 285 279 274 274 273 268 260 251 246 244 244 243 243 241 237 235 235 236 236 236 236 236 235
275 276 277 279 279 278 280 286 289 286 284 280 279 275 268 261 267 278 282 282 283 284 281 277 276 273 266 259 252 248 245 242 241 239 237 235 234 234 235 233 233 235 234 232
272 273 273 270 269 274 279 282 282 284 286 286 286 283 280 275 273 275 276 279 280 281 280 277 274 268 261 257 254 251 249 248 246 243 238 235 235 234 232 232 235 235 234 235
274 273 273 275 273 268 270 272 275 278 279 281 286 288 287 285 280 280 280 280 281 280 278 276 273 267 262 259 256 253 249 246 243 241 238 234 232 233 232 231 234 232 229 226